[[{"header":{"parameterUnit":"m.s-1","parameterCategory":1,"la1":30.2991,"la2":30.254,"lo1":-89.0895,"lo2":-89.0444,"dy":0.0017,"dx":0.0017,"nx":28,"ny":28,"refTime":"2024-10-14T03:00:00:Z","depth":0,"parameterNumber":2,"parameterNumberName":"U-component_of_WINDS"},"data":[0,0,0,0,0,0,0,0,0,0,0,0,0,0,0,0,0,0,0,0,0,0,0,0,0,0,0,0,0,0,0,0,0,0,0,0,0,0,0,0,0,0,0,0,0,0,0,0,0,0,0,0,0,0,0,0,0,0,2.9253,2.9255,0,2.9407,2.9408,2.941,2.9416,2.9414,2.9412,2.9411,2.9567,2.9573,2.9579,0,0,0,0,0,0,0,0,0,0,0,0,0,2.8965,2.8971,2.9253,2.9255,2.9257,2.9406,2.9408,2.941,2.9416,2.9414,2.9412,2.941,2.9565,2.9572,2.9579,0,0,0,0,0,0,0,0,0,0,0,0,0,2.9102,2.8972,2.9253,2.9278,2.9282,2.9406,2.9408,2.9411,2.9417,2.9414,2.9411,2.9409,2.9563,2.9572,2.958,2.969,0,0,2.9607,2.9611,0,0,0,0,0,0,0,0,2.9094,2.9112,2.9272,2.9276,2.9281,2.9389,2.9364,2.9504,2.9417,2.9365,2.9411,2.9407,2.951,2.9523,2.9558,2.9697,2.9704,2.9608,2.9614,2.9617,2.962,0,0,0,0,0,0,0,2.9085,2.9106,2.9314,2.9275,2.928,2.9281,2.9298,2.9391,2.9451,2.937,2.9371,2.9389,2.9512,2.955,2.9562,2.9706,2.9608,2.9616,2.9621,2.9625,2.9942,2.9945,0,0,0,0,0,0,2.907,2.9098,2.9309,2.9318,2.9179,2.9289,2.9307,2.9357,2.945,2.9462,2.9391,2.9388,2.9536,2.9552,2.9567,2.97,2.9617,2.9626,2.9631,2.9939,2.9943,2.9946,0,0,0,0,0,0,2.9064,2.9089,2.9303,2.9208,2.9236,2.9297,2.9353,2.9362,2.9399,2.9466,2.9477,2.9418,2.9534,2.9555,2.9659,2.9706,2.9629,2.9638,2.9935,2.994,2.9944,2.9968,0,0,0,0,0,0,2.9056,2.9087,2.9129,2.9209,2.9241,2.9392,2.9356,2.9367,2.9414,2.9413,2.9495,2.9506,2.9534,2.9646,2.9668,2.9717,2.9644,2.9931,2.9937,2.9943,2.9963,2.9973,2.9981,0,0,0,0,0,2.9045,2.9129,2.9131,2.9156,2.9295,2.9395,2.9412,2.9443,2.9418,2.9461,2.9504,2.9503,2.9698,2.9657,2.9681,2.9733,2.9928,2.9936,2.9942,2.9959,2.9971,2.9981,0,0,0,0,0,0,2.9052,2.914,2.9143,2.9255,2.9318,2.9395,2.945,2.9455,2.9525,2.952,2.9556,2.9574,2.9677,2.9716,2.9669,2.9844,2.981,2.9822,2.9814,2.9826,2.9835,2.9822,2.9652,0,0,0,0,0,2.9067,2.9141,2.9214,2.9306,2.9337,2.9388,2.9433,2.9452,2.9517,2.9543,2.9594,2.9658,2.9733,2.9782,2.9856,2.997,2.9987,3.0018,3.0027,3.0034,3.0043,3.0105,3.0119,2.9969,2.9969,2.9969,0,0,2.9098,2.9155,2.92,2.9309,2.9359,2.9434,2.941,2.9491,2.9547,2.9556,2.9656,2.9696,2.977,2.9879,2.993,2.9915,3.0089,3.0043,3.0048,3.0053,3.0114,3.0128,3.014,2.9974,2.9973,2.9972,0,0,2.9192,2.9244,2.9325,2.9376,2.9453,2.9487,2.9506,2.9584,2.961,2.9713,2.972,2.9788,2.9918,2.9969,3.0012,3.0127,3.0128,3.0151,3.0196,3.0256,3.0268,3.0278,3.0318,3.0331,3.016,3.016,3.016,0,2.9221,2.9334,2.9367,2.9448,2.9495,2.9507,2.959,2.9638,2.9734,2.9767,2.9749,2.9911,2.9962,3.0083,3.0111,3.0146,3.0169,3.014,3.0264,3.0275,3.0285,3.0323,3.0337,3.0162,3.0162,3.0162,3.0162,0,2.9365,2.9444,2.9501,2.9593,2.9648,2.9729,2.9774,2.9825,2.9839,2.9875,2.9978,3.004,3.0125,3.0156,3.0171,3.0279,3.0267,3.0256,3.0222,3.0301,3.0336,3.0351,3.0165,3.0164,3.0164,3.0163,0,0,2.9465,2.9576,2.9596,2.9637,2.9723,2.9785,2.9867,2.9951,2.9993,3.006,3.0129,3.0239,3.0229,3.0279,3.03,3.0353,3.0438,3.0336,3.0338,3.035,3.0559,3.0564,3.0581,3.044,3.0443,3.0446,3.0552,0,2.9567,2.9713,2.9745,2.987,2.9943,2.9956,3.0027,3.0088,3.0123,3.019,3.023,3.0307,3.029,3.0319,3.0373,3.0416,3.048,3.0409,3.0503,3.0506,3.0482,3.06,3.0606,3.0703,3.0567,3.0569,3.0571,0,2.9704,2.9774,2.9906,2.9982,3.0014,3.0077,3.0156,3.0221,3.029,3.0312,3.0367,3.0383,3.0469,3.0433,3.0551,3.0502,3.0543,3.0571,3.0575,3.0583,3.0541,3.0608,3.0735,3.0749,3.0594,3.0592,3.059,0,2.9761,2.9889,2.9984,3.002,3.0111,3.0155,3.0196,3.0262,3.031,3.038,3.0411,3.049,3.0532,3.0593,3.063,3.0601,3.0745,3.0712,3.0764,3.0763,3.0792,3.0789,3.0924,3.0823,3.0822,3.0822,3.0822,0,2.987,2.995,3.0011,3.0069,3.0159,3.0196,3.0284,3.0324,3.0383,3.0449,3.0467,3.0529,3.0574,3.0643,3.0672,3.0765,3.0785,3.0804,3.0811,3.0801,3.0798,3.0826,3.082,3.0826,3.0825,3.0824,3.0824,0,2.9948,2.9992,3.0096,3.0175,3.0196,3.0259,3.0326,3.0383,3.042,3.0504,3.0525,3.0583,3.0665,3.0708,3.081,3.083,3.0933,3.0937,3.0909,3.0911,3.096,3.0953,3.1116,3.1138,3.1024,3.1025,3.1026,0,3.0012,3.0074,3.0159,3.0205,3.0246,3.0319,3.0368,3.0408,3.0458,3.0542,3.0589,3.0671,3.0738,3.0868,3.0919,3.0997,3.1001,3.1053,3.1013,3.1001,3.0999,3.0994,3.0999,3.1059,3.106,3.1061,3.1061,0,3.0122,3.0141,3.0211,3.0289,3.0348,3.0411,3.0474,3.051,3.056,3.0616,3.0699,3.0752,3.0856,3.0937,3.1019,3.1061,3.1069,3.1074,3.109,3.1079,3.106,3.1069,3.0925,3.1069,3.1069,3.1068,3.1068,3.1067,3.0194,3.0249,3.0317,3.0395,3.0446,3.0504,3.0562,3.0606,3.0676,3.0763,3.0783,3.087,3.0938,3.1049,3.1093,3.1162,3.1152,3.1175,3.1181,3.1185,3.1186,3.1051,3.1178,3.1178,3.1178,3.1178,3.1177,0,3.0302,3.0347,3.0418,3.0505,3.0566,3.057,3.064,3.0691,3.0767,3.083,3.0896,3.0992,3.1071,3.1129,3.1209,3.1253,3.1259,3.1273,3.1268,3.1278,3.1192,3.1169,3.1267,3.1267,3.1267,3.1266,3.1266,3.1266,3.0365,3.0458,3.0485,3.0604,3.0649,3.0734,3.0773,3.0827,3.0877,3.0983,3.1049,3.1086,3.1147,3.1232,3.1305,3.132,3.1347,3.136,3.1375,3.1293,3.1284,3.1275,3.1253,3.1367,3.1367,3.1455,3.1456,3.1456]},{"header":{"parameterUnit":"m.s-1","parameterCategory":1,"la1":30.2991,"la2":30.254,"lo1":-89.0895,"lo2":-89.0444,"dy":0.0017,"dx":0.0017,"nx":28,"ny":28,"refTime":"2024-10-14T03:00:00:Z","depth":0,"parameterNumber":3,"parameterNumberName":"V-component_of_WINDS"},"data":[0,0,0,0,0,0,0,0,0,0,0,0,0,0,0,0,0,0,0,0,0,0,0,0,0,0,0,0,0,0,0,0,0,0,0,0,0,0,0,0,0,0,0,0,0,0,0,0,0,0,0,0,0,0,0,0,0,0,2.5972,2.5973,0,2.6023,2.6024,2.6024,2.6017,2.6016,2.6015,2.6014,2.6061,2.6063,2.6065,0,0,0,0,0,0,0,0,0,0,0,0,0,2.5862,2.5864,2.5972,2.5973,2.5973,2.6023,2.6024,2.6024,2.6017,2.6016,2.6015,2.6014,2.606,2.6063,2.6065,0,0,0,0,0,0,0,0,0,0,0,0,0,2.5911,2.5865,2.5972,2.5976,2.5977,2.6023,2.6024,2.6025,2.6017,2.6016,2.6014,2.6013,2.6059,2.6062,2.6065,2.611,0,0,2.6075,2.6076,0,0,0,0,0,0,0,0,2.5908,2.5915,2.5975,2.5976,2.5977,2.6012,2.6002,2.6053,2.6017,2.6001,2.6014,2.6013,2.6045,2.6049,2.6062,2.6112,2.6114,2.6075,2.6077,2.6078,2.6079,0,0,0,0,0,0,0,2.5905,2.5913,2.5992,2.5975,2.5977,2.5973,2.5978,2.6012,2.603,2.6003,2.6002,2.6009,2.6046,2.6059,2.6063,2.6114,2.6075,2.6077,2.6079,2.6081,2.6202,2.6203,0,0,0,0,0,0,2.5901,2.591,2.5991,2.5994,2.5939,2.5976,2.5982,2.6002,2.6029,2.6032,2.601,2.6008,2.6054,2.6059,2.6064,2.6117,2.6078,2.6081,2.6083,2.6201,2.6202,2.6204,0,0,0,0,0,0,2.5899,2.5908,2.5988,2.5952,2.5962,2.5979,2.6002,2.6004,2.6017,2.6035,2.6037,2.602,2.6053,2.606,2.6098,2.6119,2.6082,2.6085,2.6199,2.6201,2.6203,2.6224,0,0,0,0,0,0,2.5896,2.5908,2.5926,2.5952,2.5964,2.6024,2.6003,2.6006,2.6023,2.6021,2.6045,2.6048,2.6053,2.6094,2.6101,2.6122,2.6087,2.6197,2.62,2.6202,2.6222,2.6227,2.6231,0,0,0,0,0,2.5892,2.5929,2.5927,2.5937,2.5988,2.6025,2.6031,2.6038,2.6025,2.6042,2.6054,2.6047,2.6115,2.6098,2.6106,2.6128,2.6196,2.6199,2.6202,2.622,2.6226,2.6231,0,0,0,0,0,0,2.5903,2.5932,2.5931,2.5978,2.5999,2.6024,2.6046,2.6044,2.6068,2.6065,2.607,2.6076,2.6115,2.6125,2.6105,2.6172,2.6154,2.6159,2.6164,2.617,2.6174,2.6171,2.609,0,0,0,0,0,2.5911,2.5941,2.5965,2.6004,2.6015,2.6029,2.6045,2.6049,2.607,2.6078,2.6092,2.6112,2.6137,2.6154,2.6179,2.6223,2.6227,2.6242,2.6247,2.6251,2.6255,2.6278,2.6284,2.6214,2.6214,2.6214,0,0,2.5928,2.5948,2.5966,2.6007,2.6023,2.6052,2.6036,2.6068,2.6089,2.6082,2.612,2.6131,2.6153,2.6194,2.6213,2.6204,2.6275,2.6255,2.6258,2.626,2.6282,2.6288,2.6294,2.6216,2.6216,2.6215,0,0,2.5973,2.5992,2.6027,2.6044,2.607,2.6079,2.6088,2.6113,2.612,2.6158,2.6154,2.6178,2.6222,2.6238,2.6252,2.6302,2.6297,2.631,2.6334,2.6357,2.6362,2.6367,2.6385,2.6391,2.6314,2.6314,2.6314,0,2.599,2.6036,2.6044,2.6076,2.6094,2.6091,2.6125,2.6141,2.6173,2.6184,2.6174,2.6229,2.6244,2.6289,2.6301,2.6312,2.6321,2.6307,2.6361,2.6366,2.6371,2.6387,2.6394,2.6316,2.6315,2.6315,2.6315,0,2.6055,2.6087,2.6111,2.6144,2.6164,2.6197,2.6208,2.6227,2.6228,2.6237,2.6275,2.6293,2.6321,2.6331,2.6332,2.6376,2.6369,2.636,2.6342,2.6379,2.6395,2.6401,2.6318,2.6317,2.6317,2.6316,0,0,2.6109,2.6147,2.6155,2.617,2.6199,2.6222,2.6254,2.6283,2.6299,2.632,2.6346,2.6384,2.6376,2.6391,2.6393,2.6413,2.6451,2.6401,2.6402,2.641,2.6499,2.6506,2.6513,2.6448,2.6449,2.645,2.6497,0,2.6157,2.6216,2.6224,2.6275,2.6303,2.63,2.6328,2.6347,2.6357,2.638,2.639,2.6416,2.6404,2.6413,2.6433,2.6443,2.6469,2.6439,2.647,2.6471,2.6465,2.6522,2.6529,2.6572,2.6504,2.6505,2.6505,0,2.6221,2.6246,2.6301,2.6325,2.6337,2.6362,2.6389,2.6413,2.6434,2.6439,2.6456,2.6456,2.6487,2.6467,2.6509,2.6488,2.6501,2.6508,2.651,2.6513,2.6491,2.6525,2.6586,2.6593,2.6515,2.6514,2.6514,0,2.6254,2.6302,2.6341,2.6353,2.6383,2.64,2.6413,2.6433,2.645,2.6472,2.6483,2.6508,2.6522,2.6541,2.6546,2.6532,2.6587,2.6568,2.6591,2.6591,2.6603,2.6602,2.6666,2.6612,2.6612,2.6612,2.6611,0,2.6306,2.6339,2.6356,2.638,2.6416,2.6424,2.6459,2.6471,2.6489,2.6513,2.6511,2.6534,2.6541,2.6564,2.6568,2.6601,2.6607,2.6611,2.6612,2.6611,2.6611,2.662,2.6617,2.6613,2.6613,2.6613,2.6612,0,2.6349,2.6362,2.6404,2.6429,2.6436,2.6462,2.6482,2.6504,2.6513,2.6544,2.6551,2.6565,2.6592,2.66,2.6632,2.6634,2.6673,2.6671,2.6667,2.6667,2.6689,2.6686,2.6761,2.6771,2.671,2.6711,2.6711,0,2.6382,2.6408,2.6436,2.6453,2.6467,2.6495,2.6512,2.652,2.6538,2.6564,2.6582,2.6609,2.6632,2.6675,2.6686,2.671,2.6708,2.6733,2.6712,2.671,2.6708,2.6706,2.6708,2.6737,2.6737,2.6738,2.6738,0,2.6438,2.6443,2.647,2.6498,2.652,2.6542,2.6563,2.6577,2.6587,2.6607,2.6636,2.6653,2.6686,2.6713,2.6737,2.6748,2.6744,2.6745,2.6751,2.6751,2.6747,2.6749,2.6677,2.6743,2.6742,2.6742,2.6742,2.6742,2.6477,2.6499,2.6523,2.6552,2.6569,2.6589,2.6611,2.6623,2.6648,2.6677,2.6679,2.671,2.6729,2.6762,2.6774,2.6797,2.679,2.6799,2.6801,2.6803,2.6805,2.6744,2.6801,2.6801,2.6801,2.6801,2.6801,0,2.6532,2.6547,2.6574,2.6605,2.6627,2.6624,2.6647,2.6666,2.6693,2.6713,2.6735,2.6767,2.6793,2.6806,2.6831,2.6847,2.6846,2.6853,2.6852,2.6854,2.6811,2.6802,2.6853,2.6853,2.6853,2.6853,2.6853,2.6853,2.6564,2.6602,2.6609,2.6655,2.6669,2.6701,2.6714,2.6732,2.6748,2.6784,2.6806,2.6816,2.6832,2.6858,2.6881,2.6884,2.6893,2.6901,2.6903,2.6862,2.6857,2.6852,2.6844,2.6903,2.6903,2.6945,2.6945,2.6945]}]]